Snowfall_Accumulation
0.1 0.8 5.6 2.9 0.7 0.5 0.3 0.1 0.8 3.8 4.8 6.6 11.0 11.2 12.4 8.5 7.8 6.7 5.1 1.9 2.0 2.3 1.3 0.5 0.0 0.0 0.0 0.0 0.0 0.0 0.0 0.0 0.0 0.0 0.0 0.0 0.0 0.0 0.0 0.0 0.0 0.0 0.0 0.0
0.0 0.1 2.3 1.5 0.2 0.0 0.0 0.6 1.3 1.8 2.3 4.7 2.7 0.7 0.8 4.3 5.3 3.8 3.1 2.2 1.0 0.8 0.5 0.1 0.0 0.0 0.0 0.0 0.0 0.0 0.0 0.0 0.0 0.0 0.0 0.0 0.0 0.0 0.0 0.0 0.0 0.0 0.0 0.0
0.2 0.0 1.6 4.1 6.5 4.1 1.7 1.2 1.4 1.9 2.8 5.2 1.7 0.0 0.1 0.0 0.3 0.8 0.7 0.6 0.3 0.0 0.0 0.0 0.0 0.0 0.0 0.0 0.0 0.0 0.0 0.0 0.0 0.0 0.0 0.0 0.0 0.0 0.0 0.0 0.0 0.0 0.0 0.0
0.3 0.3 2.8 6.4 4.8 5.0 7.6 5.0 5.9 5.2 5.8 4.2 1.6 0.2 0.0 0.0 0.0 0.1 0.1 0.2 0.1 0.0 0.0 0.0 0.0 0.0 0.0 0.0 0.0 0.0 0.0 0.0 0.0 0.0 0.0 0.0 0.0 0.0 0.0 0.0 0.0 0.0 0.0 0.0
0.4 0.4 2.7 1.1 0.0 0.7 1.5 1.4 1.9 2.9 2.7 1.3 0.5 0.0 0.0 0.0 0.0 0.1 0.1 0.1 0.1 0.0 0.0 0.0 0.0 0.0 0.0 0.0 0.0 0.0 0.0 0.0 0.0 0.0 0.0 0.0 0.0 0.0 0.0 0.0 0.0 0.0 0.0 0.0
0.3 0.6 1.5 1.3 0.0 0.0 0.3 3.6 2.5 0.2 0.9 0.4 0.0 0.2 0.2 0.1 0.0 0.0 0.0 0.0 0.0 0.0 0.0 3.8 4.0 4.8 6.4 0.0 0.0 0.0 0.0 0.0 0.0 0.0 0.0 0.0 0.0 0.0 0.0 0.0 0.0 0.0 0.0 0.0
0.8 1.0 1.6 0.0 0.0 0.0 2.0 4.1 0.4 0.1 1.2 0.0 0.0 0.1 0.1 0.0 0.0 0.0 0.1 0.4 0.1 0.1 0.5 1.7 3.4 5.5 8.5 10.1 8.6 4.1 3.4 2.4 0.0 0.0 0.0 0.0 0.0 0.0 0.0 0.0 0.0 0.0 0.0 0.0
2.3 1.8 2.3 0.0 0.0 0.8 2.5 0.4 0.1 0.0 0.0 0.0 0.0 0.0 0.0 0.0 0.0 0.4 0.6 1.3 1.1 0.7 0.6 1.7 2.7 6.2 8.5 9.6 10.7 11.0 8.0 8.2 3.0 0.0 1.5 0.0 0.0 0.0 0.0 0.0 0.0 0.0 0.0 0.0
1.9 2.9 1.1 0.3 0.8 1.2 0.6 0.3 0.2 0.0 0.0 0.0 0.0 0.0 0.0 0.0 0.0 0.7 1.6 2.5 2.2 2.0 1.4 1.1 1.9 3.3 5.6 7.8 8.7 10.5 7.3 9.4 4.6 6.0 2.0 2.2 0.0 0.0 0.0 0.0 0.0 0.0 0.0 0.0
1.9 1.2 0.4 0.2 0.2 0.2 0.3 0.2 0.0 0.2 0.0 0.0 0.0 0.0 0.0 0.0 0.0 0.5 2.4 2.4 2.8 2.6 2.2 1.6 1.9 1.6 1.8 2.2 3.0 4.8 5.8 6.3 8.7 6.0 8.2 9.6 3.4 5.3 1.8 2.5 0.5 0.6 0.0 0.0
2.8 1.7 1.6 0.8 1.1 1.6 0.4 0.1 0.0 0.0 0.0 0.0 0.0 0.0 0.0 0.0 0.0 0.0 1.2 2.1 2.9 2.5 2.4 2.9 2.4 1.3 1.0 0.7 1.2 1.8 2.4 2.5 3.3 5.3 7.6 8.5 12.6 15.5 16.4 16.4 4.7 5.5 6.0 1.9
3.5 3.1 3.2 2.7 2.4 2.3 1.3 0.2 0.1 0.0 0.0 0.0 0.0 0.0 0.0 0.0 0.0 0.0 0.1 0.2 0.5 0.9 0.9 0.7 0.7 0.5 0.4 0.4 0.2 0.1 1.0 1.3 2.1 2.4 3.8 5.4 8.0 10.4 13.2 17.0 16.6 15.6 15.4 10.5
2.3 2.9 2.8 3.1 2.9 2.4 2.0 1.4 0.3 0.0 0.0 0.1 0.2 0.1 0.0 0.0 0.0 0.0 0.0 0.0 0.1 0.3 0.3 0.4 0.2 0.2 0.2 0.1 0.0 0.1 0.2 0.3 0.4 1.2 1.9 3.1 4.2 5.8 7.8 9.4 10.9 12.3 12.5 12.9
2.1 2.8 2.7 2.8 3.0 2.1 1.3 1.4 0.7 0.4 0.2 0.4 0.3 0.2 0.1 0.0 0.0 0.0 0.1 0.1 0.1 0.0 0.1 0.1 0.0 0.6 0.5 0.3 0.0 0.0 0.0 0.0 0.2 0.2 0.5 0.9 1.5 2.8 4.2 5.0 5.5 6.6 7.3 7.2
0.8 0.9 1.5 1.6 1.5 1.3 0.9 0.7 0.5 0.4 0.5 0.5 0.4 0.3 0.2 0.1 0.1 0.2 0.2 0.1 0.1 0.1 0.1 0.1 0.0 0.4 0.7 0.3 0.0 0.1 0.1 0.1 0.2 0.0 0.0 0.1 0.1 0.3 0.7 1.2 2.4 3.3 3.1 2.8
0.2 0.1 0.3 0.8 1.0 0.8 0.9 0.6 0.2 0.3 0.3 0.1 0.1 0.4 0.1 0.1 0.2 0.0 0.0 0.0 0.0 0.3 0.2 0.2 0.1 0.7 0.7 0.6 0.2 0.2 0.2 0.2 0.1 0.1 0.1 0.0 0.0 0.0 0.0 0.0 0.0 0.2 0.8 1.3
0.2 0.2 0.1 0.2 0.2 0.0 0.1 0.0 0.0 0.0 0.0 0.0 0.0 0.0 0.0 0.0 0.0 0.0 0.2 0.0 0.1 0.2 0.5 0.4 0.9 0.6 0.4 0.3 0.3 0.3 0.3 0.3 0.1 0.0 0.0 0.0 0.0 0.0 0.0 0.0 0.0 0.0 0.2 0.0
0.0 0.0 0.0 0.0 0.0 0.0 0.0 0.0 0.0 0.0 0.0 0.0 0.0 0.0 0.0 0.0 0.1 0.1 0.2 0.1 0.1 0.0 0.1 0.6 0.7 0.4 0.2 0.5 0.3 0.2 0.1 0.1 0.1 0.2 0.2 0.2 0.1 0.0 0.0 0.0 0.0 0.0 0.0 0.0
0.0 0.0 0.0 0.0 0.0 0.0 0.0 0.0 0.0 0.0 0.1 0.1 0.0 0.1 0.1 0.1 0.2 0.0 0.0 0.0 0.0 0.0 0.3 0.4 0.4 0.2 0.3 0.4 0.2 0.2 0.2 0.3 0.2 0.2 0.2 0.0 0.0 0.0 0.0 0.0 0.0 0.0 0.0 0.0
0.0 0.0 0.0 0.0 0.0 0.0 0.0 0.1 0.0 0.0 0.1 0.0 0.1 0.0 0.0 0.1 0.1 0.2 0.0 0.1 0.4 0.7 0.4 0.3 0.2 0.2 0.2 0.1 0.1 0.2 0.2 0.2 0.1 0.1 0.0 0.0 0.0 0.0 0.0 0.0 0.0 0.0 0.0 0.0
0.0 0.0 0.0 0.0 0.0 0.0 0.0 0.1 0.0 0.0 0.0 0.0 0.0 0.0 0.0 0.1 0.0 0.0 0.1 0.0 0.2 0.1 0.0 0.0 0.0 0.2 0.1 0.2 0.0 0.2 0.1 0.1 0.1 0.0 0.0 0.0 0.0 0.0 0.0 0.0 0.0 0.0 0.0 0.0
0.0 0.0 0.0 0.0 0.0 0.0 0.1 0.1 0.0 0.0 0.0 0.0 0.0 0.1 0.3 0.3 0.0 0.0 0.1 0.1 0.0 0.0 0.0 0.0 0.1 0.1 0.0 0.0 0.0 0.1 0.1 0.0 0.1 0.0 0.0 0.0 0.0 0.0 0.0 0.0 0.0 0.0 0.0 0.0
0.0 0.0 0.0 0.0 0.0 0.0 0.0 0.0 0.0 0.0 0.0 0.0 0.1 0.1 0.2 0.1 0.0 0.1 0.1 0.0 0.0 0.0 0.0 0.0 0.0 0.0 0.0 0.0 0.0 0.0 0.0 0.0 0.0 0.0 0.0 0.0 0.0 0.0 0.0 0.0 0.0 0.0 0.0 0.0
0.1 0.0 0.0 0.0 0.0 0.1 0.1 0.2 0.1 0.0 0.0 0.0 0.0 0.0 0.0 0.4 0.1 0.0 0.0 0.0 0.0 0.0 0.0 0.0 0.0 0.0 0.0 0.0 0.0 0.0 0.0 0.1 0.0 0.0 0.0 0.0 0.0 0.0 0.0 0.0 0.0 0.0 0.0 0.0
0.0 0.0 0.0 0.1 0.1 0.1 0.1 0.0 0.0 0.0 0.0 0.0 0.1 0.0 0.0 0.0 0.0 0.0 0.0 0.0 0.0 0.0 0.0 0.0 0.0 0.0 0.0 0.0 0.0 0.0 0.0 0.0 0.0 0.0 0.0 0.0 0.0 0.0 0.0 0.0 0.0 0.0 0.0 0.0
0.1 0.2 0.1 0.1 0.0 0.0 0.0 0.0 0.0 0.0 0.1 0.0 0.0 0.0 0.0 0.0 0.0 0.0 0.0 0.0 0.0 0.0 0.0 0.0 0.0 0.0 0.0 0.0 0.0 0.0 0.0 0.0 0.0 0.0 0.0 0.0 0.0 0.0 0.0 0.0 0.0 0.0 0.0 0.0
0.1 0.0 0.1 0.1 0.0 0.0 0.0 0.0 0.1 0.1 0.0 0.1 0.0 0.0 0.0 0.0 0.0 0.0 0.0 0.0 0.1 0.1 0.1 0.0 0.0 0.0 0.0 0.0 0.0 0.0 0.0 0.0 0.0 0.0 0.0 0.0 0.0 0.0 0.0 0.0 0.0 0.0 0.0 0.0